SCP
0 0 0 0 0 0 -0 0 0 0 0 0 0 0 0 -0 0 0 0 0 0 0 1 1 0 0 0 0 0 0 0 0
0 0 -0 -0 0 0 0 0 0 0 -0 0 0 0 0 0 0 0 0 0 0 1 1 1 1 0 0 0 0 0 0 0
0 0 -0 -0 -0 0 -0 -0 -0 0 0 0 0 0 0 0 0 0 0 0 0 0 1 1 1 1 0 0 0 0 0 0
0 -0 -0 -0 -0 0 0 0 -0 0 0 0 0 0 0 0 0 0 0 0 0 1 1 1 1 1 1 1 1 0 0 0
0 0 -0 -0 -0 0 0 -0 0 0 0 0 -0 0 0 0 0 0 0 0 0 0 1 1 1 1 1 1 1 1 0 0
0 0 -0 0 -0 0 -0 0 0 0 0 0 -0 0 0 0 0 0 0 0 0 0 0 1 1 2 2 1 1 1 1 0
0 0 0 0 0 0 0 0 0 0 0 0 -0 0 0 0 0 0 0 0 1 0 0 0 1 1 2 2 1 1 1 1
0 0 0 0 0 -0 -0 0 0 0 0 0 0 -0 0 0 0 0 0 1 1 1 0 0 0 1 2 2 1 1 1 1
0 0 0 0 0 0 0 -0 0 0 0 0 0 0 0 0 0 0 0 0 1 1 1 0 0 1 2 2 1 1 1 1
0 0 0 0 0 0 0 0 0 0 0 0 0 0 0 0 0 0 0 0 1 1 0 0 0 1 1 1 1 1 1 1
0 0 0 0 0 0 0 0 0 0 0 0 0 0 0 0 0 0 0 0 0 1 0 0 0 1 1 1 1 1 1 1
0 0 0 0 0 0 0 0 0 0 0 0 0 0 0 0 0 0 0 0 0 0 0 1 0 1 1 1 1 1 1 0
0 0 0 0 0 0 0 0 0 0 0 0 0 0 0 0 0 0 0 0 0 0 0 0 1 0 1 1 1 1 0 0
0 0 0 0 -0 0 0 0 0 0 0 -0 0 0 0 0 0 0 0 0 0 0 0 1 1 0 1 1 1 1 1 0
0 0 0 0 0 0 0 0 0 0 0 0 0 0 0 0 0 0 0 0 0 0 1 0 0 1 1 1 1 0 0 1
0 0 0 0 0 0 0 0 0 0 0 0 -0 0 0 0 0 0 0 0 0 1 1 1 2 2 1 1 0 0 0 1
0 0 0 0 0 0 0 0 0 0 0 0 0 0 0 0 0 0 0 0 0 1 1 3 2 2 1 1 0 0 0 0
0 0 0 0 0 0 0 0 0 0 0 0 0 0 0 0 0 0 0 1 1 2 2 3 2 1 1 0 0 0 0 0
0 0 0 0 0 0 -0 0 -0 -0 0 0 0 0 -0 0 0 0 1 1 1 1 2 1 1 1 0 0 0 0 0 0
0 0 0 0 0 0 -0 -0 -0 0 -0 0 0 0 0 0 0 0 0 1 1 1 1 1 1 1 0 0 0 0 0 0
Wind_Speed_500mb
6 6 10 7 8 4 5 3 13 3 16 17 9 28 36 27 37 34 29 32 34 34 35 34 34 32 33 32 30 27 22 17
4 14 14 12 11 15 7 12 1 16 8 5 27 45 31 29 27 31 31 32 33 35 37 37 38 40 40 40 37 32 27 21
7 11 15 9 25 45 10 8 18 26 5 5 31 34 44 33 24 23 33 31 32 40 43 43 44 46 47 47 44 39 33 27
9 13 19 7 30 19 10 15 18 16 5 10 29 25 26 27 22 18 19 24 33 38 48 49 48 50 52 51 49 45 39 34
8 11 22 5 20 11 28 31 7 16 13 21 36 23 20 13 14 30 37 33 34 40 49 54 53 54 56 56 53 49 46 42
7 8 20 8 24 22 31 16 7 17 9 11 34 28 21 16 21 35 43 50 48 49 51 55 58 59 61 60 59 55 52 49
11 10 15 19 30 59 43 32 14 9 5 19 17 18 33 29 43 49 50 54 65 64 61 62 60 63 66 66 64 61 60 58
15 14 12 37 24 66 23 37 34 15 25 32 50 22 42 32 40 42 49 58 60 60 64 65 67 67 70 74 74 73 71 68
37 40 38 42 42 50 37 26 37 16 42 32 41 33 33 47 40 33 35 29 36 47 65 72 71 72 75 79 80 80 79 75
55 56 49 36 54 47 51 48 54 57 54 52 36 39 47 41 48 46 47 45 44 40 43 56 67 70 78 81 80 82 84 80
48 54 57 61 51 48 64 79 69 66 66 61 53 64 64 61 56 52 50 49 52 44 35 40 55 64 77 80 80 74 78 79
49 53 56 42 50 58 67 74 72 72 75 76 76 72 67 68 61 58 62 61 52 45 38 38 45 53 60 70 76 74 66 63
42 28 18 34 42 50 72 65 66 67 53 62 76 77 70 63 59 56 58 60 52 37 40 44 51 47 53 62 75 79 62 53
31 32 24 17 64 32 27 37 53 65 76 88 88 90 95 84 77 65 54 46 43 40 43 45 49 48 50 58 73 73 59 51
39 15 8 28 74 28 52 57 58 62 78 82 78 84 88 89 83 64 49 49 52 44 39 42 45 48 50 60 70 60 51 44
37 13 29 37 64 42 65 70 68 80 86 87 92 91 89 87 84 53 53 59 51 40 42 40 45 50 56 62 59 53 47 47
11 21 28 37 46 35 41 35 41 60 64 79 84 85 87 61 66 55 48 56 47 42 41 46 51 62 64 58 49 46 41 43
17 19 17 26 44 46 45 38 59 65 66 75 78 83 87 68 63 55 47 40 43 43 44 48 54 60 68 63 48 42 41 39
20 20 43 26 24 34 40 35 56 60 71 70 58 63 70 73 63 59 48 44 44 49 45 42 46 48 47 49 43 43 41 37
29 22 31 15 34 43 43 50 41 43 61 67 70 81 79 76 68 56 49 44 44 40 37 39 42 39 39 39 45 39 30 31
Wind_Direction_500mb
143 198 207 207 199 297 210 352 345 27 233 142 194 160 133 145 161 175 188 188 189 192 193 196 195 193 191 191 192 193 190 186
173 232 267 229 310 297 351 346 324 236 271 118 164 149 153 153 163 181 196 193 200 201 201 202 204 202 201 201 202 201 202 203
254 244 252 350 280 286 242 159 227 218 89 42 171 168 169 168 170 187 203 200 210 213 213 210 210 209 208 208 208 207 211 216
239 252 269 231 285 242 284 260 277 241 136 187 158 174 168 179 189 215 224 230 227 224 223 216 214 215 216 216 216 213 216 219
259 283 298 219 294 269 245 229 359 144 130 170 176 196 193 184 245 229 223 237 235 235 224 224 223 224 223 222 222 221 223 224
253 238 277 340 342 319 350 292 52 147 141 188 199 199 203 234 242 233 225 229 234 239 237 232 227 231 230 228 227 226 229 231
232 210 252 53 307 292 337 302 177 159 275 174 168 239 213 227 223 222 230 238 235 231 236 241 236 234 233 233 231 231 233 233
214 237 300 312 314 302 331 316 303 10 326 274 304 317 218 229 234 230 242 240 241 238 240 244 245 241 238 234 232 232 234 234
261 260 268 283 287 271 289 284 286 295 313 308 308 275 270 266 251 257 266 265 252 242 236 240 245 246 243 236 235 236 239 237
251 259 264 262 271 280 269 265 279 288 296 299 278 281 290 260 261 270 269 273 279 275 241 239 244 249 249 243 242 239 241 241
240 257 256 263 264 263 277 284 284 287 288 288 283 295 288 282 277 268 271 260 272 257 262 259 248 254 248 248 244 244 243 244
248 247 255 258 265 266 270 275 286 289 286 286 284 286 291 284 279 274 284 257 253 248 267 274 277 270 263 255 246 245 242 243
258 245 251 279 276 254 260 273 275 277 283 289 289 289 281 282 284 287 291 259 237 254 279 284 276 275 267 256 246 245 241 235
247 243 248 229 258 256 259 266 272 282 286 286 283 279 278 279 276 281 277 234 252 263 272 275 270 270 259 252 246 243 242 234
249 232 228 204 258 255 255 256 266 273 273 275 282 280 280 281 278 272 249 245 255 257 264 275 265 258 252 248 239 240 237 228
245 222 234 242 264 265 270 268 268 269 269 270 271 271 280 284 274 250 250 255 250 262 264 263 250 246 237 232 231 228 224 222
209 209 233 244 264 267 253 251 263 268 267 262 265 272 274 277 255 247 256 244 252 267 256 254 237 224 221 211 202 204 203 208
293 284 256 246 253 264 264 262 254 259 260 259 265 276 280 260 238 242 252 249 252 255 250 243 234 221 219 213 208 215 218 229
260 305 290 296 282 284 276 260 264 272 273 275 274 278 284 275 244 241 244 249 248 237 231 233 221 209 205 212 219 227 227 228
251 259 260 212 277 265 268 265 265 248 256 264 275 275 275 276 237 234 237 231 226 225 224 211 204 202 201 209 202 199 204 213
Wind_Speed_850mb
6 6 10 7 8 4 5 3 13 3 16 17 9 28 36 27 37 34 29 32 34 34 35 34 34 32 33 32 30 27 22 17
4 14 14 12 11 15 7 12 1 16 8 5 27 45 31 29 27 31 31 32 33 35 37 37 38 40 40 40 37 32 27 21
7 11 15 9 25 45 10 8 18 26 5 5 31 34 44 33 24 23 33 31 32 40 43 43 44 46 47 47 44 39 33 27
9 13 19 7 30 19 10 15 18 16 5 10 29 25 26 27 22 18 19 24 33 38 48 49 48 50 52 51 49 45 39 34
8 11 22 5 20 11 28 31 7 16 13 21 36 23 20 13 14 30 37 33 34 40 49 54 53 54 56 56 53 49 46 42
7 8 20 8 24 22 31 16 7 17 9 11 34 28 21 16 21 35 43 50 48 49 51 55 58 59 61 60 59 55 52 49
11 10 15 19 30 59 43 32 14 9 5 19 17 18 33 29 43 49 50 54 65 64 61 62 60 63 66 66 64 61 60 58
15 14 12 37 24 66 23 37 34 15 25 32 50 22 42 32 40 42 49 58 60 60 64 65 67 67 70 74 74 73 71 68
37 40 38 42 42 50 37 26 37 16 42 32 41 33 33 47 40 33 35 29 36 47 65 72 71 72 75 79 80 80 79 75
55 56 49 36 54 47 51 48 54 57 54 52 36 39 47 41 48 46 47 45 44 40 43 56 67 70 78 81 80 82 84 80
48 54 57 61 51 48 64 79 69 66 66 61 53 64 64 61 56 52 50 49 52 44 35 40 55 64 77 80 80 74 78 79
49 53 56 42 50 58 67 74 72 72 75 76 76 72 67 68 61 58 62 61 52 45 38 38 45 53 60 70 76 74 66 63
42 28 18 34 42 50 72 65 66 67 53 62 76 77 70 63 59 56 58 60 52 37 40 44 51 47 53 62 75 79 62 53
31 32 24 17 64 32 27 37 53 65 76 88 88 90 95 84 77 65 54 46 43 40 43 45 49 48 50 58 73 73 59 51
39 15 8 28 74 28 52 57 58 62 78 82 78 84 88 89 83 64 49 49 52 44 39 42 45 48 50 60 70 60 51 44
37 13 29 37 64 42 65 70 68 80 86 87 92 91 89 87 84 53 53 59 51 40 42 40 45 50 56 62 59 53 47 47
11 21 28 37 46 35 41 35 41 60 64 79 84 85 87 61 66 55 48 56 47 42 41 46 51 62 64 58 49 46 41 43
17 19 17 26 44 46 45 38 59 65 66 75 78 83 87 68 63 55 47 40 43 43 44 48 54 60 68 63 48 42 41 39
20 20 43 26 24 34 40 35 56 60 71 70 58 63 70 73 63 59 48 44 44 49 45 42 46 48 47 49 43 43 41 37
29 22 31 15 34 43 43 50 41 43 61 67 70 81 79 76 68 56 49 44 44 40 37 39 42 39 39 39 45 39 30 31
Wind_Direction_850mb
143 198 207 207 199 297 210 352 345 27 233 142 194 160 133 145 161 175 188 188 189 192 193 196 195 193 191 191 192 193 190 186
173 232 267 229 310 297 351 346 324 236 271 118 164 149 153 153 163 181 196 193 200 201 201 202 204 202 201 201 202 201 202 203
254 244 252 350 280 286 242 159 227 218 89 42 171 168 169 168 170 187 203 200 210 213 213 210 210 209 208 208 208 207 211 216
239 252 269 231 285 242 284 260 277 241 136 187 158 174 168 179 189 215 224 230 227 224 223 216 214 215 216 216 216 213 216 219
259 283 298 219 294 269 245 229 359 144 130 170 176 196 193 184 245 229 223 237 235 235 224 224 223 224 223 222 222 221 223 224
253 238 277 340 342 319 350 292 52 147 141 188 199 199 203 234 242 233 225 229 234 239 237 232 227 231 230 228 227 226 229 231
232 210 252 53 307 292 337 302 177 159 275 174 168 239 213 227 223 222 230 238 235 231 236 241 236 234 233 233 231 231 233 233
214 237 300 312 314 302 331 316 303 10 326 274 304 317 218 229 234 230 242 240 241 238 240 244 245 241 238 234 232 232 234 234
261 260 268 283 287 271 289 284 286 295 313 308 308 275 270 266 251 257 266 265 252 242 236 240 245 246 243 236 235 236 239 237
251 259 264 262 271 280 269 265 279 288 296 299 278 281 290 260 261 270 269 273 279 275 241 239 244 249 249 243 242 239 241 241
240 257 256 263 264 263 277 284 284 287 288 288 283 295 288 282 277 268 271 260 272 257 262 259 248 254 248 248 244 244 243 244
248 247 255 258 265 266 270 275 286 289 286 286 284 286 291 284 279 274 284 257 253 248 267 274 277 270 263 255 246 245 242 243
258 245 251 279 276 254 260 273 275 277 283 289 289 289 281 282 284 287 291 259 237 254 279 284 276 275 267 256 246 245 241 235
247 243 248 229 258 256 259 266 272 282 286 286 283 279 278 279 276 281 277 234 252 263 272 275 270 270 259 252 246 243 242 234
249 232 228 204 258 255 255 256 266 273 273 275 282 280 280 281 278 272 249 245 255 257 264 275 265 258 252 248 239 240 237 228
245 222 234 242 264 265 270 268 268 269 269 270 271 271 280 284 274 250 250 255 250 262 264 263 250 246 237 232 231 228 224 222
209 209 233 244 264 267 253 251 263 268 267 262 265 272 274 277 255 247 256 244 252 267 256 254 237 224 221 211 202 204 203 208
293 284 256 246 253 264 264 262 254 259 260 259 265 276 280 260 238 242 252 249 252 255 250 243 234 221 219 213 208 215 218 229
260 305 290 296 282 284 276 260 264 272 273 275 274 278 284 275 244 241 244 249 248 237 231 233 221 209 205 212 219 227 227 228
251 259 260 212 277 265 268 265 265 248 256 264 275 275 275 276 237 234 237 231 226 225 224 211 204 202 201 209 202 199 204 213